Zurück zum Katalog

NIMBUS 2 DEB

AktivLEO
NORAD 38183·DEBRIS·🇺🇸 United States

Gestartet May 15, 1966 von Vandenberg Space Force Base

Loading…

Nächste Überflüge (nächste 24 Stunden)

TLE

AktuellSource: Space-Track

Epoche: Sep 14, 2026, 06:56 UTC

1 38183U 66040BB  26257.28914992  .00001182  00000-0  20149-2 0  9995
2 38183 100.4608 189.9902 0058197 348.7784 165.2940 13.46737206721010

Verfolge NIMBUS 2 DEB in Echtzeit mit AllMySat

Download on the App Store